This demonstration page uses our WeatherBlox Daily Observations layout. Learn more.

Left ArrowRight Arrow

41.86663, -103.66717

Hourly Observations for April 26, 2017

Temp ( °F °C ) Dew Point ( °F °C ) Humidity (%) Winds ( mph kmh ) Pressure ( in mb ) Visibility ( mi km ) Precip ( " mm )
12:53 am 00:53 Cloudy 32 undefined 26 -3.3 79 79 W 6 9 29.88 1012 10 16.0934 N/A
1:53 am 01:53 Cloudy 33 0.6 26 -3.3 75 75 NNW 12 19 29.87 1012 10 16.0934 N/A
2:53 am 02:53 Cloudy 33 0.6 25 -3.9 72 72 NNW 17 28 29.86 1011 10 16.0934 N/A
3:53 am 03:53 Cloudy 33 0.6 25 -3.9 72 72 NNW 13 20 29.86 1011 10 16.0934 N/A
4:53 am 04:53 Partly Cloudy 31 -0.6 25 -3.9 79 79 NNW 9 15 29.86 1011 10 16.0934 N/A
5:20 am 05:20 Mostly Cloudy 30 -1 25 -4 80 80 NNW 5 7 29.94 1014 10 16.0934 N/A
5:53 am 05:53 Cloudy 32 undefined 26 -3.3 79 79 NNW 3 6 29.89 1012 10 16.0934 N/A
6:38 am 06:38 Mostly Sunny 30 -1 25 -4 80 80 N 7 11 29.94 1014 10 16.0934 N/A
6:53 am 06:53 Sunny 32 undefined 26 -3.3 79 79 N 10 17 29.9 1012 10 16.0934 N/A
7:53 am 07:53 Mostly Sunny 34 1.1 27 -2.8 76 76 NNW 5 7 29.9 1013 10 16.0934 N/A
8:22 am 08:22 Mostly Cloudy 36 2 27 -3 70 70 NNW 3 6 29.91 1013 10 16.0934 N/A
8:39 am 08:39 Partly Cloudy 34 1.1 27 -2.8 76 76 NNW 5 7 29.91 1013 10 16.0934 N/A
8:53 am 08:53 Partly Cloudy 36 2.2 27 -2.8 70 70 NNW 5 7 29.89 1012 10 16.0934 N/A
9:53 am 09:53 Sunny 41 5 29 -1.7 62 62 VRB 3 6 29.85 1011 10 16.0934 N/A
10:53 am 10:53 Sunny 45 7.2 30 -1.1 56 56 N N/A 29.81 1010 10 16.0934 N/A
11:53 am 11:53 Sunny 49 9.4 31 -0.6 50 50 N N/A 29.77 1008 N/A N/A
12:53 pm 12:53 Sunny 52 11.1 32 undefined 47 47 undefined N/A 29.72 1007 10 16.0934 N/A
1:53 pm 13:53 Sunny 56 13.3 32 undefined 40 40 VRB 6 9 29.68 1005 10 16.0934 N/A
2:53 pm 14:53 Partly Cloudy 58 14.4 30 -1.1 35 35 NW 10 17 29.66 1004 10 16.0934 N/A
3:53 pm 15:53 Sunny 60 15.6 31 -0.6 33 33 undefined N/A 29.62 1003 10 16.0934 N/A
4:53 pm 16:53 Mostly Cloudy 60 15.6 31 -0.6 33 33 N 8 13 29.63 1003 10 16.0934 N/A
5:53 pm 17:53 Cloudy 52 11.1 38 3.3 59 59 NE 18 30 29.67 1005 10 16.0934 0.01 0.254
6:53 pm 18:53 Cloudy with Light Rain 49 9.4 37 2.8 64 64 ENE 13 20 29.68 1005 10 16.0934 N/A
7:53 pm 19:53 Cloudy with Light Rain 47 8.3 38 3.3 71 71 ESE 9 15 29.7 1006 10 16.0934 N/A
8:53 pm 20:53 Cloudy with Light Rain 46 7.8 39 3.9 77 77 SE 7 11 29.7 1006 10 16.0934 N/A
9:53 pm 21:53 Mostly Cloudy 44 6.7 38 3.3 79 79 SSE 6 9 29.7 1006 10 16.0934 N/A
10:53 pm 22:53 Mostly Cloudy 41 5 37 2.8 86 86 ENE 7 11 29.68 1005 10 16.0934 N/A
11:53 pm 23:53 Cloudy 40 4.4 37 2.8 89 89 E 8 13 29.64 1004 10 16.0934 N/A

Powered by AerisWeather